Hourly Data Report for October 01, 2017

All times are specified in Local Standard Time (LST). Add 1 hour to adjust for Daylight Saving Time where and when it is observed.

FORT PROVIDENCE
NORTHWEST TERRITORIES

61°19'01.000" N
117°36'07.000" W
161.50 m
2201799
71087
WID

Download Data

Hourly Data (October 2017)
Hourly Data Report for October 1, 2017
Temp Definition
°C
Dew Point Temp Definition
°C
Rel Hum Definition
%
Wind Dir Definition
10's deg

Wind Spd Definition
km/h
Visibility Definition
km
Stn Press Definition
kPa
Hmdx Definition


Wind Chill Definition


Weather Definition


TIME
00:00 4.2 1.9 85 32 19   98.90     LegendNANA
01:00 4.0 1.7 85 33 21   98.99     LegendNANA
02:00 4.2 1.6 84 33 22   99.07     LegendNANA
03:00 4.3 1.6 82 32 27   99.17     LegendNANA
04:00 4.3 1.6 83 32 23   99.28     LegendNANA
05:00 4.2 1.1 80 33 24   99.39     LegendNANA
06:00 4.1 0.6 78 33 25   99.52     LegendNANA
07:00 4.0 0.7 79 33 24   99.64     LegendNANA
08:00 4.0 0.5 78 33 28   99.78     LegendNANA
09:00 4.4 -0.5 71 33 24   99.90     LegendNANA
10:00 4.3 -0.9 69 33 26   99.99     LegendNANA
11:00 5.2 -0.9 65 34 21   100.08     LegendNANA
12:00 5.9 -1.3 60 33 19   100.14     LegendNANA
13:00 6.2 -2.2 55 33 22   100.22     LegendNANA
14:00 6.5 -3.1 50 34 20   100.29     LegendNANA
15:00 6.6 -3.9 47 33 21   100.37     LegendNANA
16:00 6.3 -6.3 40 34 20   100.46     LegendNANA
17:00 5.6 -5.4 45 33 21   100.55     LegendNANA
18:00 4.4 -5.7 48 33 16   100.67     LegendNANA
19:00 3.7 -5.9 49 33 15   100.77     LegendNANA
20:00 3.2 -5.7 52 33 12   100.83     LegendNANA
21:00 3.3 -3.5 61 32 8   100.86     LegendNANA
22:00 1.8 -3.5 68 30 7   100.91     LegendNANA
23:00 1.3 -3.4 71 31 6   100.93     LegendNANA

Notes on Data Quality.

Legend

  • E = Estimated
  • M = Missing
  • NA = Not Available
  • ‡ = Partner data that is not subject to review by the National Climate Archives
Date modified: